CZ-6A DEB, 60970

Orbit data source: Space-Track

CZ-6A DEB, 60970 is space debris in LEO originally from a launch on Tue, 06 Aug 2024 UTC launched from the Taiyaun Space Center, China (TSC). Debris objects in space refer to the collection of defunct objects orbiting the Earth. Examples of debris include non-operational satellites, rocket bodies, and fragments generated from explosions, collisions, or faulty payload assembly.

Loading next visibility...
Identifier
60970, 2024-140LV
Orbit
LEO
Country
Flag of CNCN / PRC
Related business
Manufacturer
SAST
Mission
Spacecraft
Bus & Motor
Unknown
Mass
Unknown
Launch date (UTC)
2024-08-06 (2 years ago)
Launch vehicle
Unknown
Launch site
Taiyaun Space Center, China (TSC)
Object type
Payload
Rocket body
Debris
Shape & HBR
Unknown shape, 0.1 m
Radar Cross Section
Medium (>0.1 m² and <1 m²)

Expand to show TLE details & history
Last TLE update: 14 hours ago

TLE from 14 hours ago
0 CZ-6A DEB
1 60970U 24140LV  26171.25053294  .00000638  00000-0  29814-3 0  9994
2 60970  88.9988 274.4571 0058430 164.6915 195.6059 14.18220360 95495
Epoch: 2026-06-20T06:00Z
TLE epoch observation values (Epoch: 2026-06-20T06:00:46.046Z)
Latitude
-0.00004°
Longitude
-84.20261°
Altitude
875.027 km
Speed
7.394 km/s
True Right ascension
18h 17m 49s
True Declination
0° 00' 00"
Sunlit
Object was in full shadow at epoch
Visualization orbit readout
Latitude
Unknown
Longitude
Unknown
Altitude
Unknown
Speed
Unknown
Apparent Right ascension
Unknown
Apparent Declination
Unknown
Sunlit
N/A
Visualization observer readout
Local Sidereal Time
07:20:45
Azimuth
Unknown
Elevation
Unknown
Doppler factor
Unknown
Orbital elements
Apogee altitude
870.439 km
Perigee altitude
786.224 km
Semi-major axis
7,206.468 km
Eccentricity
0.00584
Inclination
88.9988°
RAAN
274.4571°
Arg. of periapsis
164.6915°
True anomaly
195.42703°
Mean anomaly
195.6059°
Eccentric anomaly
195.51634°
Mean motion
3.5478 °/min
Orbital period
101.47 mins
BSTAR
0.00029814
Loading maneuver chart data...
Computing Atmospheric mass density...
Loading historical data...
Loading historical data...
Loading historical data...
Loading historical data...
Loading historical data...
Loading historical data...
Loading historical data...

Documentation

Showing up to 5 results
|